Regional Weather Roundup
Issued by NWS

Home | Current Version | Previous Version | Graphics & Text | Print | Product List | Glossary On
Versions: 1 2 3 4 5 6 7 8 9 10 11 12 13 14 15 16 17 18 19 20 21 22 23 24 25 26 27
000
ASUS43 KDMX 240107
RWRIA

WEATHER ROUNDUP FOR IOWA
NATIONAL WEATHER SERVICE DES MOINES IA
800 PM CDT THU OCT 23 2014

NOTE: "FAIR" INDICATES FEW OR NO CLOUDS BELOW 12,000 FEET WITH NO
SIGNIFICANT WEATHER AND/OR OBSTRUCTIONS TO VISIBILITY.

* - THESE STATIONS ARE NOT NWS STATIONS...THUS NOT UNDER NWS
QUALITY CONTROL.  THEY ALSO DO NOT REPORT WEATHER SUCH
AS PRECIPITATION OR FOG.

IAZ001>003-012>014-020>022-031>034-043>046-240200-
   NORTHWEST IOWA

CITY           SKY/WX    TMP DP  RH WIND       PRES   REMARKS
CARROLL *      CLEAR     48  45  87 CALM      30.02R
CHEROKEE *     CLEAR     54  48  82 CALM      30.01R
DENISON *      CLEAR     52  46  82 CALM      30.01R
LE MARS *      CLEAR     55  48  76 S6        30.00R
ORANGE CITY *  CLEAR     59  46  63 S6        30.00R
SHELDON *      CLEAR     54  45  71 S7        29.99R
SIOUX CITY     PTCLDY    57  46  66 SE3       30.00R
STORM LAKE *   CLEAR     55  43  62 S5        30.03R
$$

IAZ055>058-069>071-079>083-090>094-240200-
   SOUTHWEST IOWA

CITY           SKY/WX    TMP DP  RH WIND       PRES   REMARKS
ATLANTIC *     CLEAR     52  46  82 CALM      30.02S
AUDUBON *      CLEAR     48  43  81 CALM      30.04R
CLARINDA *     CLEAR     52  50  93 CALM      30.05R
COUNCIL BLFS * CLEAR     61  50  67 S6        30.02R
CRESTON *      CLEAR     61  46  59 CALM      30.04S
HARLAN  *      CLEAR     54  46  76 CALM      30.06R
LAMONI         CLEAR     61  55  81 S6        30.05R
RED OAK *      CLEAR     55  50  82 CALM      30.04R
SHENANDOAH *   CLEAR     55  50  82 CALM      30.05R
$$

IAZ047>049-059>061-072>074-084-240200-
   CENTRAL IOWA

CITY           SKY/WX    TMP DP  RH WIND       PRES   REMARKS
AMES           CLEAR     50  46  86 CALM      30.03R
ANKENY *       CLEAR     54  52  94 CALM      30.03R
CHARITON *     CLEAR     55  55 100 S5        30.04S
DES MOINES     PTCLDY    60  55  83 S8        30.03R
GRINNELL*      CLEAR     52  50  93 S3        30.05R FOG
KNOXVILLE *    PTCLDY    55  54  94 S7        30.04R FOG
MARSHALLTOWN   CLEAR     52  52 100 E3        30.03R
PELLA *        CLEAR     57  55  94 S5        30.06R
PERRY *          N/A     54  46  76 S5        30.03R
$$

IAZ004>006-015-016-023>025-035-036-240200-
   NORTH CENTRAL IOWA

CITY           SKY/WX    TMP DP  RH WIND       PRES   REMARKS
ALGONA *       CLEAR     55  46  71 S8        30.01S
CLARION *      CLEAR     52  46  82 SE8       30.02R
ESTHERVILLE    CLEAR     53  41  63 SW6       30.00R
FORT DODGE *   CLEAR     50  43  76 CALM      30.03R
MASON CITY     CLEAR     48  43  82 SE6       30.03R
FOREST CITY *  CLEAR     50  45  81 S3        30.01R
IOWA FALLS *     N/A     54  48  82 SE6       30.04S
$$

IAZ007>011-017>019-026>030-037>042-050>054-066-240200-
   NORTHEAST IOWA

CITY           SKY/WX    TMP DP  RH WIND       PRES   REMARKS
CEDAR RAPIDS   PTCLDY    50  50 100 CALM      30.04R FOG
CHARLES CITY * PTCLDY    50  50 100 SE6       30.04R FOG
CLINTON *      CLOUDY    54  48  82 SE5       30.07S
DECORAH *      CLOUDY    50  50 100 CALM      30.03S FOG
DUBUQUE        CLOUDY    51  49  92 S3        30.05S
MONTICELLO *   CLOUDY    52  52 100 CALM      30.04S
OELWEIN *      FOG       48  48 100 E3        30.05S VSB 1/2
WATERLOO       FOG       46  45  96 CALM      30.03S VSB 1/4
$$

IAZ064-065-067-068-078-240200-
   EAST CENTRAL IOWA

CITY           SKY/WX    TMP DP  RH WIND       PRES   REMARKS
DAVENPORT      CLOUDY    57  47  69 S5        30.05S
IOWA CITY      FOG       47  47 100 CALM      30.06R VSB 1/4
MT. PLEASANT * MOCLDY    55  50  82 S3        30.06R
MUSCATINE *    CLOUDY    57  50  77 S5        30.05S
QUAD CITIES    CLOUDY    57  47  69 CALM      30.05R
$$

IAZ062-063-075>077-085>089-095>099-240200-
   SOUTHEAST IOWA

CITY           SKY/WX    TMP DP  RH WIND       PRES   REMARKS
BURLINGTON     PTCLDY    55  51  86 SW6       30.05R
FAIRFIELD *      N/A     59  55  88 SW3       30.05R
FORT MADISON * PTCLDY    55  54  94 S6        30.06S
KEOKUK *       MOCLDY    55  54  94 S7        30.05S
OSKALOOSA *    FOG       52  50  93 CALM      30.05R VSB 1/4
CENTERVILLE *  FOG       46  46 100 CALM      30.07R VSB 1/2
OTTUMWA        CLEAR     47  46  97 CALM      30.05R FOG
WASHINGTON *   CLOUDY    57  57 100 S3        30.05R
$$

ABBREVIATIONS USED IN REMARKS
   TC - TEMPERATURES IN CELSIUS
  WCI - WIND CHILL INDEX
   HX - HEAT INDEX
  VSB - VISIBILITY
$$




USA.gov is the U.S. government's official web portal to all federal, state and local government web resources and services.